Station Historical Data
Daily Summary for May 23, 2011 Units:  English    Metric   Both
« Previous Day
Next Day »
Daily Weekly Monthly Yearly Custom
  High: Low: Average:
Temperature: 84.6 °F 64.5 °F 74.3 °F
Dew Point: 72.3 °F 60.3 °F 66.6 °F
Humidity: 88% 58% 77%
Wind Speed: 16.0mph 0.0mph 4.8mph
Wind Gust: 21.0mph - -
Wind- - SSE
Pressure: 29.98 in 29.84 in -
Precipitation: 0.00 in    
Historical Graphs
 
 
Tabular Data for May 23, 2011
Time Temperature Dew Point Pressure Wind Wind Speed Wind Gust Humidity Rainfall Rate (Hourly) Conditions
00:00 73.9 °F 68.1 °F 29.85 in SSE 8.0 mph 11.0 mph 82% 0.00 in
00:01 73.9 °F 68.1 °F 29.85 in SSW 4.0 mph 9.0 mph 82% 0.00 in
00:05 73.9 °F 68.1 °F 29.85 in SSW 6.0 mph 8.0 mph 82% 0.00 in
00:10 74.0 °F 68.2 °F 29.86 in SSW 7.0 mph 7.0 mph 82% 0.00 in
00:15 74.0 °F 67.8 °F 29.85 in SSE 6.0 mph 7.0 mph 81% 0.00 in
00:20 74.0 °F 67.8 °F 29.85 in SSW 5.0 mph 10.0 mph 81% 0.00 in
00:25 73.9 °F 67.7 °F 29.85 in SSE 3.0 mph 8.0 mph 81% 0.00 in
00:30 73.9 °F 67.7 °F 29.86 in SE 5.0 mph 6.0 mph 81% 0.00 in
00:31 73.9 °F 67.7 °F 29.86 in SSE 7.0 mph 7.0 mph 81% 0.00 in
00:32 73.9 °F 67.7 °F 29.86 in SE 3.0 mph 7.0 mph 81% 0.00 in
00:35 74.0 °F 67.8 °F 29.86 in SSE 3.0 mph 8.0 mph 81% 0.00 in
00:36 74.0 °F 67.8 °F 29.86 in SSE 4.0 mph 8.0 mph 81% 0.00 in
00:38 74.0 °F 67.8 °F 29.87 in SSW 4.0 mph 6.0 mph 81% 0.00 in
00:41 74.1 °F 67.5 °F 29.87 in SSE 4.0 mph 7.0 mph 80% 0.00 in
00:46 74.1 °F 67.5 °F 29.87 in SSE 5.0 mph 7.0 mph 80% 0.00 in
00:51 74.0 °F 67.4 °F 29.87 in South 4.0 mph 7.0 mph 80% 0.00 in
00:53 74.0 °F 67.4 °F 29.87 in South 4.0 mph 6.0 mph 80% 0.00 in
00:56 73.9 °F 67.3 °F 29.87 in South 5.0 mph 6.0 mph 80% 0.00 in
00:58 73.9 °F 67.3 °F 29.87 in SSE 4.0 mph 5.0 mph 80% 0.00 in
01:01 73.9 °F 67.7 °F 29.87 in South 3.0 mph 6.0 mph 81% 0.00 in
01:06 73.7 °F 67.5 °F 29.86 in SE 5.0 mph 7.0 mph 81% 0.00 in
01:11 73.5 °F 67.3 °F 29.86 in South 4.0 mph 7.0 mph 81% 0.00 in
01:16 73.3 °F 67.1 °F 29.86 in SSE 4.0 mph 7.0 mph 81% 0.00 in
01:21 73.2 °F 67.4 °F 29.86 in SSE 4.0 mph 8.0 mph 82% 0.00 in
01:26 73.0 °F 67.2 °F 29.86 in SSE 3.0 mph 6.0 mph 82% 0.00 in
01:28 72.9 °F 67.1 °F 29.86 in SSE 5.0 mph 6.0 mph 82% 0.00 in
01:32 72.8 °F 67.3 °F 29.86 in SE 4.0 mph 5.0 mph 83% 0.00 in
01:33 72.8 °F 67.3 °F 29.86 in SE 3.0 mph 5.0 mph 83% 0.00 in
01:34 72.8 °F 67.3 °F 29.86 in SSE 2.0 mph 5.0 mph 83% 0.00 in
01:36 72.7 °F 67.2 °F 29.86 in SSW 3.0 mph 5.0 mph 83% 0.00 in
01:37 72.7 °F 67.2 °F 29.87 in SSE 4.0 mph 5.0 mph 83% 0.00 in
01:42 72.8 °F 67.0 °F 29.87 in SSE 6.0 mph 9.0 mph 82% 0.00 in
01:43 72.8 °F 67.0 °F 29.87 in SSE 6.0 mph 9.0 mph 82% 0.00 in
01:48 72.9 °F 67.1 °F 29.87 in SSE 4.0 mph 8.0 mph 82% 0.00 in
01:53 72.7 °F 67.2 °F 29.86 in SE 5.0 mph 6.0 mph 83% 0.00 in
01:54 72.7 °F 67.2 °F 29.86 in SE 5.0 mph 6.0 mph 83% 0.00 in
01:57 72.6 °F 67.2 °F 29.86 in SE 5.0 mph 7.0 mph 83% 0.00 in
01:58 72.7 °F 67.2 °F 29.86 in SSE 5.0 mph 8.0 mph 83% 0.00 in
02:03 72.7 °F 67.2 °F 29.85 in SE 5.0 mph 7.0 mph 83% 0.00 in
02:08 72.6 °F 67.2 °F 29.86 in South 3.0 mph 6.0 mph 83% 0.00 in
02:13 72.4 °F 66.9 °F 29.86 in South 4.0 mph 6.0 mph 83% 0.00 in
02:18 72.2 °F 67.1 °F 29.86 in SSE 4.0 mph 4.0 mph 84% 0.00 in
02:23 72.1 °F 67.0 °F 29.86 in SE 4.0 mph 4.0 mph 84% 0.00 in
02:24 72.1 °F 67.0 °F 29.86 in SE 4.0 mph 4.0 mph 84% 0.00 in
02:29 72.1 °F 67.0 °F 29.85 in SSW 4.0 mph 6.0 mph 84% 0.00 in
02:34 72.1 °F 67.0 °F 29.85 in SE 5.0 mph 5.0 mph 84% 0.00 in
02:35 72.1 °F 67.0 °F 29.85 in SE 5.0 mph 5.0 mph 84% 0.00 in
02:40 72.2 °F 67.1 °F 29.85 in SE 5.0 mph 8.0 mph 84% 0.00 in
02:46 72.2 °F 66.8 °F 29.85 in SSE 5.0 mph 6.0 mph 83% 0.00 in
02:51 72.1 °F 67.0 °F 29.86 in SSE 4.0 mph 7.0 mph 84% 0.00 in
02:55 72.0 °F 66.9 °F 29.86 in SSE 4.0 mph 7.0 mph 84% 0.00 in
02:56 72.0 °F 66.9 °F 29.86 in South 5.0 mph 7.0 mph 84% 0.00 in
02:58 71.9 °F 66.8 °F 29.86 in SE 4.0 mph 6.0 mph 84% 0.00 in
03:03 71.8 °F 66.7 °F 29.85 in SE 3.0 mph 7.0 mph 84% 0.00 in
03:08 71.8 °F 66.7 °F 29.85 in SE 5.0 mph 7.0 mph 84% 0.00 in
03:13 71.7 °F 66.9 °F 29.85 in SSE 5.0 mph 7.0 mph 85% 0.00 in
03:18 71.7 °F 66.9 °F 29.85 in South 5.0 mph 9.0 mph 85% 0.00 in
03:23 71.7 °F 66.6 °F 29.86 in SSE 4.0 mph 7.0 mph 84% 0.00 in
03:28 71.8 °F 66.7 °F 29.86 in SSE 5.0 mph 8.0 mph 84% 0.00 in
03:29 71.8 °F 66.7 °F 29.86 in SSE 5.0 mph 8.0 mph 84% 0.00 in
03:33 71.9 °F 66.8 °F 29.86 in SSE 4.0 mph 7.0 mph 84% 0.00 in
03:34 71.9 °F 66.8 °F 29.86 in SSW 6.0 mph 7.0 mph 84% 0.00 in
03:35 72.0 °F 66.9 °F 29.86 in South 3.0 mph 7.0 mph 84% 0.00 in
03:37 72.0 °F 66.9 °F 29.86 in SSE 4.0 mph 6.0 mph 84% 0.00 in
03:42 72.1 °F 66.7 °F 29.87 in SSW 4.0 mph 9.0 mph 83% 0.00 in
03:47 72.4 °F 66.9 °F 29.88 in SSW 7.0 mph 8.0 mph 83% 0.00 in
03:52 72.7 °F 66.9 °F 29.88 in SW 7.0 mph 7.0 mph 82% 0.00 in
03:53 72.7 °F 66.9 °F 29.88 in SW 6.0 mph 7.0 mph 82% 0.00 in
03:54 72.8 °F 67.0 °F 29.88 in SW 10.0 mph 10.0 mph 82% 0.00 in
03:59 73.0 °F 66.8 °F 29.88 in SW 5.0 mph 10.0 mph 81% 0.00 in
04:04 73.1 °F 66.9 °F 29.88 in SSW 5.0 mph 9.0 mph 81% 0.00 in
04:09 73.3 °F 67.1 °F 29.88 in South 8.0 mph 13.0 mph 81% 0.00 in
04:14 73.4 °F 67.2 °F 29.88 in SSW 5.0 mph 12.0 mph 81% 0.00 in
04:19 73.6 °F 67.4 °F 29.89 in WSW 7.0 mph 13.0 mph 81% 0.00 in
04:24 73.7 °F 67.2 °F 29.88 in SW 11.0 mph 14.0 mph 80% 0.00 in
04:29 73.8 °F 67.2 °F 29.89 in SW 6.0 mph 12.0 mph 80% 0.00 in
04:31 73.9 °F 67.3 °F 29.89 in SW 10.0 mph 10.0 mph 80% 0.00 in
04:35 74.0 °F 67.4 °F 29.89 in South 7.0 mph 11.0 mph 80% 0.00 in
04:36 74.0 °F 67.4 °F 29.89 in SW 5.0 mph 10.0 mph 80% 0.00 in
04:37 74.0 °F 67.4 °F 29.89 in SW 8.0 mph 10.0 mph 80% 0.00 in
04:42 74.0 °F 67.4 °F 29.89 in SW 3.0 mph 11.0 mph 80% 0.00 in
04:47 73.9 °F 67.7 °F 29.89 in SW 8.0 mph 8.0 mph 81% 0.00 in
04:52 73.9 °F 67.7 °F 29.89 in WSW 6.0 mph 8.0 mph 81% 0.00 in
04:53 73.9 °F 67.7 °F 29.90 in SW 4.0 mph 7.0 mph 81% 0.00 in
04:57 73.9 °F 67.7 °F 29.90 in WSW 7.0 mph 7.0 mph 81% 0.00 in
04:59 73.9 °F 67.7 °F 29.91 in WSW 3.0 mph 7.0 mph 81% 0.00 in
05:02 73.9 °F 67.7 °F 29.91 in WSW 5.0 mph 7.0 mph 81% 0.00 in
05:07 73.5 °F 66.2 °F 29.93 in NW 15.0 mph 15.0 mph 78% 0.00 in
05:12 71.4 °F 63.5 °F 29.94 in WNW 13.0 mph 17.0 mph 76% 0.00 in
05:17 69.6 °F 62.1 °F 29.93 in NW 16.0 mph 21.0 mph 77% 0.00 in
05:22 68.6 °F 61.8 °F 29.94 in WNW 14.0 mph 15.0 mph 79% 0.00 in
05:27 67.9 °F 61.2 °F 29.94 in NW 11.0 mph 12.0 mph 79% 0.00 in
05:28 67.9 °F 61.2 °F 29.94 in NW 11.0 mph 12.0 mph 79% 0.00 in
05:33 67.4 °F 61.4 °F 29.94 in NNW 4.0 mph 11.0 mph 81% 0.00 in
05:35 67.3 °F 61.3 °F 29.94 in NNW 6.0 mph 8.0 mph 81% 0.00 in
05:38 67.1 °F 61.1 °F 29.94 in NNW 11.0 mph 13.0 mph 81% 0.00 in
05:43 66.9 °F 61.2 °F 29.94 in NNW 4.0 mph 7.0 mph 82% 0.00 in
05:48 66.5 °F 60.8 °F 29.94 in NNE 5.0 mph 6.0 mph 82% 0.00 in
05:53 66.4 °F 61.1 °F 29.94 in NNW 3.0 mph 7.0 mph 83% 0.00 in
05:54 66.4 °F 61.1 °F 29.94 in NE 3.0 mph 5.0 mph 83% 0.00 in
05:55 66.4 °F 61.1 °F 29.94 in NNE 1.0 mph 5.0 mph 83% 0.00 in
05:59 66.2 °F 60.9 °F 29.95 in NW 4.0 mph 5.0 mph 83% 0.00 in
06:04 66.0 °F 61.0 °F 29.94 in NNW 4.0 mph 7.0 mph 84% 0.00 in
06:09 65.9 °F 60.9 °F 29.94 in North 5.0 mph 6.0 mph 84% 0.00 in
06:14 65.8 °F 60.8 °F 29.93 in NNW 4.0 mph 7.0 mph 84% 0.00 in
06:19 65.7 °F 60.7 °F 29.93 in NNE 3.0 mph 8.0 mph 84% 0.00 in
06:24 65.4 °F 60.8 °F 29.94 in NNE 4.0 mph 4.0 mph 85% 0.00 in
06:29 65.3 °F 60.7 °F 29.92 in NE 4.0 mph 7.0 mph 85% 0.00 in
06:30 65.3 °F 60.7 °F 29.92 in NE 6.0 mph 7.0 mph 85% 0.00 in
06:33 65.2 °F 60.6 °F 29.93 in NE 3.0 mph 6.0 mph 85% 0.00 in
06:35 65.1 °F 60.5 °F 29.93 in NE 2.0 mph 3.0 mph 85% 0.00 in
06:38 65.0 °F 60.4 °F 29.92 in East 1.0 mph 2.0 mph 85% 0.00 in
06:40 64.9 °F 60.6 °F 29.93 in ESE 1.0 mph 2.0 mph 86% 0.00 in
06:45 64.9 °F 60.6 °F 29.94 in WSW 1.0 mph 2.0 mph 86% 0.00 in
06:50 64.6 °F 60.3 °F 29.94 in Calm   1.0 mph 86% 0.00 in
06:51 64.6 °F 60.3 °F 29.94 in Calm   1.0 mph 86% 0.00 in
06:55 64.6 °F 60.7 °F 29.94 in SSE 1.0 mph 1.0 mph 87% 0.00 in
06:56 64.6 °F 60.7 °F 29.94 in SSE 1.0 mph 1.0 mph 87% 0.00 in
07:01 64.5 °F 60.5 °F 29.94 in SE 1.0 mph 1.0 mph 87% 0.00 in
07:06 64.6 °F 60.7 °F 29.94 in SSE 2.0 mph 2.0 mph 87% 0.00 in
07:11 64.7 °F 61.1 °F 29.94 in East 2.0 mph 3.0 mph 88% 0.00 in
07:16 64.8 °F 60.8 °F 29.94 in East 1.0 mph 3.0 mph 87% 0.00 in
07:17 64.8 °F 60.8 °F 29.94 in East 1.0 mph 3.0 mph 87% 0.00 in
07:22 64.9 °F 60.9 °F 29.95 in ENE 1.0 mph 1.0 mph 87% 0.00 in
07:27 65.0 °F 61.0 °F 29.95 in North 2.0 mph 2.0 mph 87% 0.00 in
07:28 65.0 °F 61.0 °F 29.95 in NNE 2.0 mph 2.0 mph 87% 0.00 in
07:32 65.0 °F 61.0 °F 29.94 in East 2.0 mph 3.0 mph 87% 0.00 in
07:33 65.0 °F 61.0 °F 29.95 in ESE 2.0 mph 3.0 mph 87% 0.00 in
07:34 65.1 °F 61.1 °F 29.94 in ESE 2.0 mph 3.0 mph 87% 0.00 in
07:35 65.1 °F 61.1 °F 29.94 in ESE 2.0 mph 3.0 mph 87% 0.00 in
07:38 65.3 °F 61.3 °F 29.94 in ENE 2.0 mph 3.0 mph 87% 0.00 in
07:43 65.5 °F 61.2 °F 29.94 in ESE 1.0 mph 3.0 mph 86% 0.00 in
07:48 65.7 °F 61.4 °F 29.95 in East 1.0 mph 2.0 mph 86% 0.00 in
07:53 65.9 °F 61.6 °F 29.96 in Calm   1.0 mph 86% 0.00 in
07:55 65.9 °F 61.6 °F 29.96 in NE 1.0 mph 1.0 mph 86% 0.00 in
07:56 65.9 °F 61.3 °F 29.96 in Calm   1.0 mph 85% 0.00 in
07:58 66.0 °F 62.0 °F 29.96 in Calm   1.0 mph 87% 0.00 in
08:00 66.0 °F 62.0 °F 29.96 in NNE 1.0 mph 1.0 mph 87% 0.00 in
08:05 65.9 °F 61.9 °F 29.97 in NNE 1.0 mph 1.0 mph 87% 0.00 in
08:10 65.9 °F 61.9 °F 29.97 in NNE 2.0 mph 2.0 mph 87% 0.00 in
08:15 65.9 °F 61.6 °F 29.97 in ENE 1.0 mph 2.0 mph 86% 0.00 in
08:20 66.0 °F 61.7 °F 29.97 in Calm   3.0 mph 86% 0.00 in
08:25 66.2 °F 61.9 °F 29.98 in North 3.0 mph 3.0 mph 86% 0.00 in
08:26 66.3 °F 62.0 °F 29.98 in North 4.0 mph 4.0 mph 86% 0.00 in
08:30 66.5 °F 62.2 °F 29.98 in WNW 3.0 mph 3.0 mph 86% 0.00 in
08:31 66.5 °F 62.2 °F 29.98 in WNW 1.0 mph 3.0 mph 86% 0.00 in
08:33 66.6 °F 62.0 °F 29.98 in NNE 1.0 mph 3.0 mph 85% 0.00 in
08:36 66.7 °F 62.0 °F 29.97 in NNE 2.0 mph 2.0 mph 85% 0.00 in
08:41 67.0 °F 62.0 °F 29.97 in NE 3.0 mph 5.0 mph 84% 0.00 in
08:46 67.3 °F 62.3 °F 29.96 in ENE 4.0 mph 6.0 mph 84% 0.00 in
08:47 67.5 °F 62.5 °F 29.95 in ENE 3.0 mph 4.0 mph 84% 0.00 in
08:52 67.7 °F 62.4 °F 29.95 in East 3.0 mph 5.0 mph 83% 0.00 in
08:53 67.7 °F 62.4 °F 29.95 in NE 4.0 mph 5.0 mph 83% 0.00 in
08:54 67.7 °F 62.4 °F 29.95 in ENE 2.0 mph 5.0 mph 83% 0.00 in
08:58 67.6 °F 62.3 °F 29.95 in East 4.0 mph 5.0 mph 83% 0.00 in
09:03 67.5 °F 62.2 °F 29.96 in ENE 2.0 mph 4.0 mph 83% 0.00 in
09:08 67.5 °F 62.2 °F 29.96 in ESE 4.0 mph 5.0 mph 83% 0.00 in
09:13 67.5 °F 62.2 °F 29.97 in NE 2.0 mph 4.0 mph 83% 0.00 in
09:18 67.6 °F 62.3 °F 29.98 in NNE 2.0 mph 3.0 mph 83% 0.00 in
09:23 67.4 °F 62.4 °F 29.96 in East 6.0 mph 7.0 mph 84% 0.00 in
09:28 67.3 °F 62.6 °F 29.94 in ESE 5.0 mph 7.0 mph 85% 0.00 in
09:29 67.3 °F 62.6 °F 29.94 in ESE 8.0 mph 8.0 mph 85% 0.00 in
09:30 67.3 °F 62.6 °F 29.94 in East 8.0 mph 8.0 mph 85% 0.00 in
09:33 67.3 °F 62.6 °F 29.95 in ESE 7.0 mph 8.0 mph 85% 0.00 in
09:34 67.3 °F 62.6 °F 29.94 in East 7.0 mph 8.0 mph 85% 0.00 in
09:35 67.3 °F 62.6 °F 29.94 in ENE 7.0 mph 9.0 mph 85% 0.00 in
09:36 67.3 °F 62.6 °F 29.94 in ENE 7.0 mph 9.0 mph 85% 0.00 in
09:39 67.4 °F 62.7 °F 29.95 in ESE 2.0 mph 7.0 mph 85% 0.00 in
09:44 67.8 °F 62.8 °F 29.96 in East 1.0 mph 4.0 mph 84% 0.00 in
09:49 68.1 °F 63.1 °F 29.96 in East 5.0 mph 5.0 mph 84% 0.00 in
09:54 68.2 °F 63.2 °F 29.97 in East 2.0 mph 5.0 mph 84% 0.00 in
09:59 68.3 °F 62.9 °F 29.96 in East 6.0 mph 6.0 mph 83% 0.00 in
10:04 68.4 °F 63.0 °F 29.96 in ESE 2.0 mph 6.0 mph 83% 0.00 in
10:09 68.5 °F 63.1 °F 29.95 in East 4.0 mph 7.0 mph 83% 0.00 in
10:10 68.5 °F 63.1 °F 29.95 in East 4.0 mph 7.0 mph 83% 0.00 in
10:15 68.7 °F 63.0 °F 29.96 in East 4.0 mph 6.0 mph 82% 0.00 in
10:20 69.0 °F 63.6 °F 29.96 in ESE 4.0 mph 6.0 mph 83% 0.00 in
10:25 69.2 °F 63.5 °F 29.96 in ESE 3.0 mph 7.0 mph 82% 0.00 in
10:27 69.3 °F 63.6 °F 29.96 in SE 6.0 mph 7.0 mph 82% 0.00 in
10:30 69.3 °F 63.6 °F 29.96 in East 8.0 mph 8.0 mph 82% 0.00 in
10:31 69.2 °F 63.5 °F 29.96 in East 4.0 mph 8.0 mph 82% 0.00 in
10:35 69.4 °F 63.7 °F 29.96 in ESE 7.0 mph 8.0 mph 82% 0.00 in
10:36 69.4 °F 63.3 °F 29.96 in ESE 5.0 mph 8.0 mph 81% 0.00 in
10:41 69.6 °F 63.9 °F 29.96 in SE 7.0 mph 7.0 mph 82% 0.00 in
10:46 69.6 °F 63.9 °F 29.96 in ESE 7.0 mph 8.0 mph 82% 0.00 in
10:51 69.6 °F 63.5 °F 29.96 in ESE 8.0 mph 10.0 mph 81% 0.00 in
10:52 69.7 °F 63.6 °F 29.96 in SE 7.0 mph 10.0 mph 81% 0.00 in
10:55 69.9 °F 63.8 °F 29.96 in SE 6.0 mph 8.0 mph 81% 0.00 in
10:57 70.1 °F 64.0 °F 29.96 in ESE 8.0 mph 10.0 mph 81% 0.00 in
11:00 70.6 °F 64.5 °F 29.96 in ESE 7.0 mph 7.0 mph 81% 0.00 in
11:02 70.7 °F 64.6 °F 29.96 in SE 4.0 mph 10.0 mph 81% 0.00 in
11:08 71.1 °F 64.6 °F 29.97 in SE 2.0 mph 8.0 mph 80% 0.00 in
11:13 71.6 °F 65.1 °F 29.97 in SE 4.0 mph 6.0 mph 80% 0.00 in
11:18 71.7 °F 64.8 °F 29.97 in SSE 6.0 mph 8.0 mph 79% 0.00 in
11:23 71.4 °F 64.2 °F 29.97 in ESE 5.0 mph 8.0 mph 78% 0.00 in
11:28 71.2 °F 64.7 °F 29.97 in ESE 6.0 mph 9.0 mph 80% 0.00 in
11:32 71.3 °F 64.8 °F 29.97 in SSE 4.0 mph 6.0 mph 80% 0.00 in
11:33 71.4 °F 64.9 °F 29.97 in SE 5.0 mph 6.0 mph 80% 0.00 in
11:34 71.5 °F 65.0 °F 29.97 in South 5.0 mph 6.0 mph 80% 0.00 in
11:35 71.6 °F 65.5 °F 29.97 in South 4.0 mph 6.0 mph 81% 0.00 in
11:38 71.8 °F 65.7 °F 29.97 in SSW 3.0 mph 5.0 mph 81% 0.00 in
11:43 72.5 °F 66.0 °F 29.98 in SSE 7.0 mph 7.0 mph 80% 0.00 in
11:48 73.5 °F 66.6 °F 29.97 in SSE 5.0 mph 9.0 mph 79% 0.00 in
11:53 74.4 °F 66.3 °F 29.97 in SSE 6.0 mph 8.0 mph 76% 0.00 in
11:54 74.7 °F 67.0 °F 29.97 in ESE 6.0 mph 8.0 mph 77% 0.00 in
11:55 74.8 °F 66.3 °F 29.97 in SE 7.0 mph 9.0 mph 75% 0.00 in
11:58 74.8 °F 66.3 °F 29.97 in SE 7.0 mph 11.0 mph 75% 0.00 in
12:01 74.8 °F 66.3 °F 29.96 in SSE 5.0 mph 9.0 mph 75% 0.00 in
12:03 74.9 °F 66.8 °F 29.96 in SE 7.0 mph 10.0 mph 76% 0.00 in
12:06 75.2 °F 67.5 °F 29.96 in SSE 9.0 mph 9.0 mph 77% 0.00 in
12:08 75.2 °F 66.7 °F 29.97 in SE 7.0 mph 9.0 mph 75% 0.00 in
12:13 74.9 °F 66.1 °F 29.96 in SSE 7.0 mph 8.0 mph 74% 0.00 in
12:18 74.9 °F 66.8 °F 29.95 in South 6.0 mph 9.0 mph 76% 0.00 in
12:23 75.2 °F 66.7 °F 29.95 in SE 6.0 mph 8.0 mph 75% 0.00 in
12:25 75.5 °F 67.4 °F 29.95 in SSE 6.0 mph 7.0 mph 76% 0.00 in
12:28 75.9 °F 66.6 °F 29.95 in SE 7.0 mph 12.0 mph 73% 0.00 in
12:29 76.2 °F 68.1 °F 29.95 in South 7.0 mph 12.0 mph 76% 0.00 in
12:34 77.3 °F 68.0 °F 29.95 in SE 9.0 mph 11.0 mph 73% 0.00 in
12:35 77.4 °F 67.3 °F 29.95 in SE 9.0 mph 13.0 mph 71% 0.00 in
12:40 77.4 °F 68.5 °F 29.94 in SE 6.0 mph 11.0 mph 74% 0.00 in
12:41 77.7 °F 68.8 °F 29.94 in SSE 7.0 mph 10.0 mph 74% 0.00 in
12:46 77.9 °F 68.2 °F 29.94 in SSE 10.0 mph 10.0 mph 72% 0.00 in
12:51 77.2 °F 67.1 °F 29.95 in South 6.0 mph 13.0 mph 71% 0.00 in
12:52 77.1 °F 67.4 °F 29.95 in SSE 8.0 mph 13.0 mph 72% 0.00 in
12:54 77.0 °F 67.7 °F 29.95 in SSE 7.0 mph 14.0 mph 73% 0.00 in
12:57 76.8 °F 67.9 °F 29.95 in SSE 10.0 mph 13.0 mph 74% 0.00 in
12:59 76.6 °F 67.7 °F 29.94 in SSE 6.0 mph 14.0 mph 74% 0.00 in
13:04 76.4 °F 67.5 °F 29.93 in SW 4.0 mph 11.0 mph 74% 0.00 in
13:09 76.3 °F 67.8 °F 29.94 in SE 11.0 mph 11.0 mph 75% 0.00 in
13:10 76.3 °F 68.2 °F 29.95 in SSW 6.0 mph 11.0 mph 76% 0.00 in
13:15 76.2 °F 68.5 °F 29.94 in South 6.0 mph 9.0 mph 77% 0.00 in
13:20 76.2 °F 68.8 °F 29.94 in SSE 9.0 mph 11.0 mph 78% 0.00 in
13:25 75.9 °F 68.6 °F 29.93 in SE 7.0 mph 12.0 mph 78% 0.00 in
13:27 75.8 °F 68.5 °F 29.92 in SSE 4.0 mph 11.0 mph 78% 0.00 in
13:30 75.9 °F 68.9 °F 29.92 in SSE 9.0 mph 11.0 mph 79% 0.00 in
13:31 75.9 °F 68.9 °F 29.92 in SSE 8.0 mph 12.0 mph 79% 0.00 in
13:34 75.7 °F 68.4 °F 29.91 in SE 7.0 mph 12.0 mph 78% 0.00 in
13:39 75.5 °F 68.5 °F 29.89 in ESE 6.0 mph 10.0 mph 79% 0.00 in
13:44 75.6 °F 69.0 °F 29.90 in SE 7.0 mph 14.0 mph 80% 0.00 in
13:49 75.8 °F 69.2 °F 29.90 in ESE 6.0 mph 11.0 mph 80% 0.00 in
13:54 76.2 °F 69.2 °F 29.91 in SSE 1.0 mph 6.0 mph 79% 0.00 in
13:56 76.3 °F 68.9 °F 29.91 in East 5.0 mph 6.0 mph 78% 0.00 in
13:58 76.5 °F 69.5 °F 29.92 in SSE 8.0 mph 8.0 mph 79% 0.00 in
13:59 76.6 °F 69.6 °F 29.92 in SSW 7.0 mph 8.0 mph 79% 0.00 in
14:01 76.7 °F 69.7 °F 29.91 in SSE 5.0 mph 9.0 mph 79% 0.00 in
14:06 76.7 °F 69.7 °F 29.91 in South 7.0 mph 11.0 mph 79% 0.00 in
14:11 76.7 °F 69.7 °F 29.91 in SE 5.0 mph 9.0 mph 79% 0.00 in
14:16 76.8 °F 69.1 °F 29.91 in South 8.0 mph 10.0 mph 77% 0.00 in
14:21 77.1 °F 69.3 °F 29.91 in SW 5.0 mph 8.0 mph 77% 0.00 in
14:24 77.3 °F 69.9 °F 29.90 in ESE 6.0 mph 8.0 mph 78% 0.00 in
14:26 77.4 °F 69.2 °F 29.90 in South 7.0 mph 11.0 mph 76% 0.00 in
14:27 77.4 °F 69.2 °F 29.90 in SE 6.0 mph 11.0 mph 76% 0.00 in
14:29 77.4 °F 69.6 °F 29.89 in SE 4.0 mph 11.0 mph 77% 0.00 in
14:32 77.4 °F 69.2 °F 29.89 in South 7.0 mph 10.0 mph 76% 0.00 in
14:33 77.4 °F 70.0 °F 29.89 in SSE 8.0 mph 10.0 mph 78% 0.00 in
14:34 77.4 °F 70.0 °F 29.89 in SE 8.0 mph 9.0 mph 78% 0.00 in
14:37 77.6 °F 69.8 °F 29.89 in ESE 7.0 mph 11.0 mph 77% 0.00 in
14:42 78.2 °F 70.0 °F 29.90 in SE 5.0 mph 12.0 mph 76% 0.00 in
14:47 79.1 °F 70.9 °F 29.90 in SE 4.0 mph 9.0 mph 76% 0.00 in
14:52 79.5 °F 71.3 °F 29.90 in SSE 6.0 mph 10.0 mph 76% 0.00 in
14:54 79.6 °F 70.6 °F 29.90 in SSE 6.0 mph 10.0 mph 74% 0.00 in
14:56 79.7 °F 70.7 °F 29.90 in SSE 6.0 mph 8.0 mph 74% 0.00 in
14:58 79.9 °F 70.9 °F 29.90 in SE 8.0 mph 9.0 mph 74% 0.00 in
14:59 80.0 °F 71.0 °F 29.90 in SW 9.0 mph 9.0 mph 74% 0.00 in
15:01 80.2 °F 71.6 °F 29.90 in South 6.0 mph 10.0 mph 75% 0.00 in
15:06 81.0 °F 69.9 °F 29.90 in SSE 4.0 mph 11.0 mph 69% 0.00 in
15:11 81.5 °F 70.8 °F 29.91 in SW 4.0 mph 12.0 mph 70% 0.00 in
15:16 81.4 °F 70.7 °F 29.91 in SSW 8.0 mph 14.0 mph 70% 0.00 in
15:21 81.4 °F 71.1 °F 29.90 in SSE 10.0 mph 10.0 mph 71% 0.00 in
15:26 81.4 °F 70.7 °F 29.91 in SSE 7.0 mph 9.0 mph 70% 0.00 in
15:27 81.5 °F 70.8 °F 29.91 in SSE 10.0 mph 10.0 mph 70% 0.00 in
15:31 82.0 °F 71.7 °F 29.91 in SE 7.0 mph 11.0 mph 71% 0.00 in
15:32 82.2 °F 72.3 °F 29.91 in South 4.0 mph 10.0 mph 72% 0.00 in
15:34 82.5 °F 71.3 °F 29.90 in SSW 5.0 mph 8.0 mph 69% 0.00 in
15:36 82.8 °F 70.7 °F 29.91 in SSW 10.0 mph 13.0 mph 67% 0.00 in
15:37 82.8 °F 70.7 °F 29.91 in SSE 9.0 mph 13.0 mph 67% 0.00 in
15:41 83.1 °F 70.1 °F 29.90 in WSW 6.0 mph 7.0 mph 65% 0.00 in
15:46 83.3 °F 70.3 °F 29.90 in South 8.0 mph 11.0 mph 65% 0.00 in
15:51 83.3 °F 69.9 °F 29.89 in South 10.0 mph 12.0 mph 64% 0.00 in
15:52 83.3 °F 69.9 °F 29.89 in SSE 9.0 mph 12.0 mph 64% 0.00 in
15:53 83.2 °F 69.8 °F 29.89 in South 8.0 mph 12.0 mph 64% 0.00 in
15:57 83.0 °F 69.6 °F 29.89 in SW 8.0 mph 10.0 mph 64% 0.00 in
15:58 82.9 °F 69.5 °F 29.89 in SSE 4.0 mph 10.0 mph 64% 0.00 in
16:03 83.1 °F 68.7 °F 29.89 in SSW 3.0 mph 9.0 mph 62% 0.00 in
16:08 83.3 °F 68.0 °F 29.89 in SW 5.0 mph 15.0 mph 60% 0.00 in
16:13 83.3 °F 67.5 °F 29.89 in South 10.0 mph 11.0 mph 59% 0.00 in
16:18 83.4 °F 68.1 °F 29.88 in SSW 7.0 mph 13.0 mph 60% 0.00 in
16:23 83.7 °F 68.8 °F 29.88 in SSW 5.0 mph 12.0 mph 61% 0.00 in
16:29 83.6 °F 68.7 °F 29.88 in SSW 5.0 mph 12.0 mph 61% 0.00 in
16:30 83.6 °F 68.7 °F 29.88 in SSW 10.0 mph 10.0 mph 61% 0.00 in
16:34 83.4 °F 68.6 °F 29.89 in SW 12.0 mph 13.0 mph 61% 0.00 in
16:35 83.3 °F 69.4 °F 29.88 in SSW 6.0 mph 13.0 mph 63% 0.00 in
16:40 83.3 °F 69.4 °F 29.88 in SSW 11.0 mph 11.0 mph 63% 0.00 in
16:45 83.4 °F 69.5 °F 29.88 in South 6.0 mph 12.0 mph 63% 0.00 in
16:50 83.4 °F 70.4 °F 29.88 in SW 6.0 mph 10.0 mph 65% 0.00 in
16:52 83.5 °F 69.6 °F 29.88 in SSW 8.0 mph 9.0 mph 63% 0.00 in
16:56 83.3 °F 69.9 °F 29.87 in SSW 5.0 mph 11.0 mph 64% 0.00 in
16:57 83.4 °F 69.9 °F 29.88 in SSW 7.0 mph 10.0 mph 64% 0.00 in
16:58 83.3 °F 69.9 °F 29.87 in West 7.0 mph 11.0 mph 64% 0.00 in
17:02 83.6 °F 71.1 °F 29.87 in SW 8.0 mph 9.0 mph 66% 0.00 in
17:07 84.0 °F 71.0 °F 29.87 in SSW 4.0 mph 9.0 mph 65% 0.00 in
17:12 84.3 °F 71.3 °F 29.87 in SSW 7.0 mph 8.0 mph 65% 0.00 in
17:17 84.4 °F 70.0 °F 29.86 in SSW 8.0 mph 12.0 mph 62% 0.00 in
17:22 84.6 °F 70.2 °F 29.86 in SSE 4.0 mph 7.0 mph 62% 0.00 in
17:27 84.4 °F 68.5 °F 29.86 in WSW 5.0 mph 10.0 mph 59% 0.00 in
17:29 84.4 °F 68.5 °F 29.86 in SSE 6.0 mph 9.0 mph 59% 0.00 in
17:32 84.2 °F 68.8 °F 29.86 in South 3.0 mph 5.0 mph 60% 0.00 in
17:34 84.1 °F 68.7 °F 29.86 in SSW 3.0 mph 6.0 mph 60% 0.00 in
17:38 83.7 °F 67.4 °F 29.85 in SSW 6.0 mph 11.0 mph 58% 0.00 in
17:39 83.6 °F 67.8 °F 29.86 in SW 7.0 mph 11.0 mph 59% 0.00 in
17:44 83.5 °F 67.2 °F 29.86 in SSE 3.0 mph 8.0 mph 58% 0.00 in
17:49 83.3 °F 67.0 °F 29.86 in South 5.0 mph 8.0 mph 58% 0.00 in
17:54 83.1 °F 67.3 °F 29.86 in SW 12.0 mph 12.0 mph 59% 0.00 in
17:55 83.0 °F 66.7 °F 29.86 in SSW 8.0 mph 12.0 mph 58% 0.00 in
17:57 83.0 °F 67.2 °F 29.86 in SW 6.0 mph 12.0 mph 59% 0.00 in
18:00 82.8 °F 67.0 °F 29.86 in South 6.0 mph 8.0 mph 59% 0.00 in
18:05 82.6 °F 66.8 °F 29.85 in SSW 5.0 mph 9.0 mph 59% 0.00 in
18:10 82.3 °F 67.5 °F 29.85 in SW 6.0 mph 9.0 mph 61% 0.00 in
18:15 82.1 °F 66.8 °F 29.85 in SW 11.0 mph 16.0 mph 60% 0.00 in
18:20 82.2 °F 66.9 °F 29.85 in South 6.0 mph 9.0 mph 60% 0.00 in
18:25 82.6 °F 67.3 °F 29.85 in SSW 6.0 mph 7.0 mph 60% 0.00 in
18:26 82.7 °F 67.4 °F 29.85 in SSW 6.0 mph 11.0 mph 60% 0.00 in
18:31 82.7 °F 67.4 °F 29.85 in South 7.0 mph 9.0 mph 60% 0.00 in
18:32 82.7 °F 67.4 °F 29.85 in SW 8.0 mph 9.0 mph 60% 0.00 in
18:34 82.4 °F 67.1 °F 29.85 in SW 7.0 mph 10.0 mph 60% 0.00 in
18:36 82.3 °F 67.0 °F 29.84 in SW 7.0 mph 10.0 mph 60% 0.00 in
18:39 82.0 °F 67.2 °F 29.84 in South 6.0 mph 11.0 mph 61% 0.00 in
18:44 81.7 °F 67.4 °F 29.84 in South 4.0 mph 7.0 mph 62% 0.00 in
18:49 82.0 °F 68.2 °F 29.84 in SSW 13.0 mph 13.0 mph 63% 0.00 in
18:54 82.0 °F 68.6 °F 29.85 in SSW 3.0 mph 8.0 mph 64% 0.00 in
18:55 82.0 °F 68.6 °F 29.85 in WSW 6.0 mph 8.0 mph 64% 0.00 in
19:00 81.8 °F 68.4 °F 29.85 in SSW 2.0 mph 7.0 mph 64% 0.00 in
19:05 81.5 °F 68.2 °F 29.85 in SW 7.0 mph 8.0 mph 64% 0.00 in
19:10 81.0 °F 68.6 °F 29.85 in SW 7.0 mph 8.0 mph 66% 0.00 in
19:15 80.6 °F 68.6 °F 29.85 in SSW 5.0 mph 9.0 mph 67% 0.00 in
19:20 80.4 °F 68.4 °F 29.85 in SSE 6.0 mph 8.0 mph 67% 0.00 in
19:21 80.4 °F 68.4 °F 29.84 in SW 3.0 mph 6.0 mph 67% 0.00 in
19:26 80.3 °F 68.3 °F 29.84 in South 4.0 mph 8.0 mph 67% 0.00 in
19:31 80.1 °F 68.6 °F 29.84 in South 5.0 mph 8.0 mph 68% 0.00 in
19:36 79.9 °F 68.8 °F 29.84 in SW 5.0 mph 6.0 mph 69% 0.00 in
19:37 79.9 °F 68.4 °F 29.85 in SSW 4.0 mph 6.0 mph 68% 0.00 in
19:41 79.8 °F 68.3 °F 29.84 in SSW 6.0 mph 7.0 mph 68% 0.00 in
19:46 79.7 °F 68.6 °F 29.85 in South 4.0 mph 8.0 mph 69% 0.00 in
19:51 79.5 °F 68.4 °F 29.86 in SSW 6.0 mph 9.0 mph 69% 0.00 in
19:52 79.5 °F 68.4 °F 29.86 in SSW 6.0 mph 9.0 mph 69% 0.00 in
19:57 79.4 °F 68.3 °F 29.86 in SSW 7.0 mph 10.0 mph 69% 0.00 in
19:58 79.4 °F 68.3 °F 29.87 in SW 5.0 mph 10.0 mph 69% 0.00 in
20:02 79.3 °F 68.3 °F 29.87 in SW 3.0 mph 8.0 mph 69% 0.00 in
20:07 79.1 °F 68.5 °F 29.86 in SW 7.0 mph 7.0 mph 70% 0.00 in
20:12 78.9 °F 68.3 °F 29.87 in SW 4.0 mph 7.0 mph 70% 0.00 in
20:13 78.9 °F 68.3 °F 29.86 in SW 4.0 mph 7.0 mph 70% 0.00 in
20:17 78.6 °F 68.4 °F 29.87 in SSW 2.0 mph 4.0 mph 71% 0.00 in
20:21 78.5 °F 68.3 °F 29.87 in South 2.0 mph 4.0 mph 71% 0.00 in
20:26 78.3 °F 68.1 °F 29.87 in SSW 3.0 mph 6.0 mph 71% 0.00 in
20:27 78.2 °F 68.4 °F 29.87 in South 3.0 mph 5.0 mph 72% 0.00 in
20:32 78.0 °F 68.2 °F 29.88 in SW 4.0 mph 4.0 mph 72% 0.00 in
20:33 78.0 °F 68.2 °F 29.88 in SW 2.0 mph 5.0 mph 72% 0.00 in
20:37 77.8 °F 68.1 °F 29.88 in SSE 1.0 mph 4.0 mph 72% 0.00 in
20:42 77.7 °F 68.4 °F 29.87 in SSE 2.0 mph 4.0 mph 73% 0.00 in
20:47 77.7 °F 68.4 °F 29.88 in SW 2.0 mph 4.0 mph 73% 0.00 in
20:52 77.4 °F 68.1 °F 29.88 in SW 2.0 mph 4.0 mph 73% 0.00 in
20:53 77.4 °F 68.1 °F 29.88 in SSW 2.0 mph 4.0 mph 73% 0.00 in
20:54 77.4 °F 68.1 °F 29.88 in South 4.0 mph 4.0 mph 73% 0.00 in
20:58 77.2 °F 68.3 °F 29.89 in SSW 1.0 mph 2.0 mph 74% 0.00 in
21:03 77.0 °F 68.1 °F 29.89 in SSE 2.0 mph 2.0 mph 74% 0.00 in
21:08 76.8 °F 68.3 °F 29.88 in SSE 2.0 mph 2.0 mph 75% 0.00 in
21:09 76.9 °F 68.4 °F 29.88 in South 2.0 mph 2.0 mph 75% 0.00 in
21:14 76.8 °F 68.3 °F 29.88 in SSE 2.0 mph 3.0 mph 75% 0.00 in
21:19 76.7 °F 68.2 °F 29.88 in South 1.0 mph 3.0 mph 75% 0.00 in
21:24 76.5 °F 68.4 °F 29.89 in Calm   1.0 mph 76% 0.00 in
21:25 76.4 °F 68.3 °F 29.89 in South 1.0 mph 1.0 mph 76% 0.00 in
21:29 76.2 °F 68.1 °F 29.89 in SW 1.0 mph 2.0 mph 76% 0.00 in
21:30 76.2 °F 68.1 °F 29.89 in Calm   2.0 mph 76% 0.00 in
21:32 76.1 °F 68.0 °F 29.89 in Calm   2.0 mph 76% 0.00 in
21:35 76.0 °F 68.3 °F 29.89 in Calm   1.0 mph 77% 0.00 in
21:38 75.8 °F 68.1 °F 29.89 in Calm     77% 0.00 in
21:43 75.5 °F 68.2 °F 29.89 in Calm   1.0 mph 78% 0.00 in
21:48 75.5 °F 68.2 °F 29.89 in SE 1.0 mph 1.0 mph 78% 0.00 in
21:53 75.4 °F 68.1 °F 29.88 in SE 1.0 mph 2.0 mph 78% 0.00 in
21:54 75.4 °F 68.1 °F 29.89 in SE 1.0 mph 2.0 mph 78% 0.00 in
21:56 75.2 °F 67.9 °F 29.88 in SE 1.0 mph 1.0 mph 78% 0.00 in
21:58 75.1 °F 68.2 °F 29.89 in SE 1.0 mph 1.0 mph 79% 0.00 in
22:03 74.9 °F 67.9 °F 29.88 in SE 1.0 mph 1.0 mph 79% 0.00 in
22:08 75.0 °F 68.1 °F 29.89 in SSE 1.0 mph 2.0 mph 79% 0.00 in
22:14 75.0 °F 68.4 °F 29.88 in SE 1.0 mph 2.0 mph 80% 0.00 in
22:19 74.7 °F 68.5 °F 29.88 in SE 1.0 mph 2.0 mph 81% 0.00 in
22:23 74.5 °F 68.3 °F 29.88 in SE 1.0 mph 1.0 mph 81% 0.00 in
22:29 74.4 °F 68.2 °F 29.88 in SSE 1.0 mph 2.0 mph 81% 0.00 in
22:30 74.3 °F 68.1 °F 29.88 in SSE 1.0 mph 2.0 mph 81% 0.00 in
22:34 74.2 °F 68.4 °F 29.88 in SSE 2.0 mph 2.0 mph 82% 0.00 in
22:35 74.1 °F 68.3 °F 29.88 in SSE 2.0 mph 2.0 mph 82% 0.00 in
22:36 74.1 °F 68.3 °F 29.88 in SSE 2.0 mph 2.0 mph 82% 0.00 in
22:41 74.1 °F 68.3 °F 29.88 in SE 3.0 mph 3.0 mph 82% 0.00 in
22:46 74.0 °F 68.2 °F 29.88 in SSE 2.0 mph 2.0 mph 82% 0.00 in
22:51 74.0 °F 68.2 °F 29.88 in SE 3.0 mph 3.0 mph 82% 0.00 in
22:53 74.0 °F 68.2 °F 29.88 in SE 3.0 mph 3.0 mph 82% 0.00 in
22:56 74.2 °F 68.4 °F 29.87 in SE 4.0 mph 5.0 mph 82% 0.00 in
22:57 74.2 °F 68.4 °F 29.87 in SE 4.0 mph 5.0 mph 82% 0.00 in
22:59 74.4 °F 68.2 °F 29.87 in SE 6.0 mph 7.0 mph 81% 0.00 in
23:01 74.5 °F 68.3 °F 29.87 in SE 5.0 mph 7.0 mph 81% 0.00 in
23:05 74.5 °F 68.3 °F 29.87 in SSE 8.0 mph 8.0 mph 81% 0.00 in
23:06 74.6 °F 68.4 °F 29.87 in SE 3.0 mph 8.0 mph 81% 0.00 in
23:11 74.4 °F 68.2 °F 29.88 in SE 2.0 mph 5.0 mph 81% 0.00 in
23:16 74.0 °F 68.2 °F 29.87 in SSE 3.0 mph 4.0 mph 82% 0.00 in
23:17 74.0 °F 68.2 °F 29.87 in SSE 4.0 mph 4.0 mph 82% 0.00 in
23:22 73.5 °F 67.7 °F 29.87 in SE 2.0 mph 4.0 mph 82% 0.00 in
23:27 73.5 °F 68.0 °F 29.87 in SE 4.0 mph 5.0 mph 83% 0.00 in
23:28 73.5 °F 68.0 °F 29.86 in SE 3.0 mph 5.0 mph 83% 0.00 in
23:32 73.4 °F 67.9 °F 29.86 in SE 3.0 mph 6.0 mph 83% 0.00 in
23:33 73.4 °F 67.9 °F 29.86 in SSE 3.0 mph 5.0 mph 83% 0.00 in
23:34 73.4 °F 67.9 °F 29.86 in SE 5.0 mph 5.0 mph 83% 0.00 in
23:38 73.4 °F 67.9 °F 29.86 in SSE 4.0 mph 4.0 mph 83% 0.00 in
23:43 73.2 °F 67.7 °F 29.87 in South 2.0 mph 4.0 mph 83% 0.00 in
23:48 72.8 °F 67.7 °F 29.87 in SSE 2.0 mph 3.0 mph 84% 0.00 in
23:53 72.4 °F 67.3 °F 29.87 in SSE 3.0 mph 3.0 mph 84% 0.00 in
23:55 72.2 °F 67.4 °F 29.87 in SSE 3.0 mph 3.0 mph 85% 0.00 in
23:58 72.0 °F 67.2 °F 29.86 in SE 4.0 mph 4.0 mph 85% 0.00 in
23:59 72.0 °F 67.6 °F 29.86 in SE 3.0 mph 4.0 mph 86% 0.00 in
Compliments of Weather Underground